Miscellaneous Local Product
Issued by NWS North Platte, NE

Home | Current Version | Previous Version | Text Only | Print | Product List | Glossary On
Versions: 1 2 3 4 5 6 7 8 9 10 11 12 13 14 15 16 17 18 19 20 21 22 23 24 25 26 27 28 29 30 31 32 33 34 35 36 37 38 39 40 41 42 43 44 45 46 47 48 49 50
000
AXUS43 KLBF 200310
MISLBF


WESTERN AND NORTH CENTRAL NEBRASKA HOURLY WEATHER ROUNDUP
NATIONAL WEATHER SERVICE NORTH PLATTE NE
1000 PM CDT FRI SEP 19 2014

***STATIONS NOT REPORTING VARIABLES SUCH AS SKY/WEATHER OR
PRESSURE ARE PROVIDED BY THE NEBRASKA DEPARTMENT OF
ROADS...RAWS...AND APRS NETWORKS...AND ARE NOT UNDER
NATIONAL WEATHER SERVICE QUALITY CONTROL***

...OBSERVATIONS IN AND NEAR THE EASTERN PANHANDLE OF NEBRASKA...

CITY           SKY/WX    TMP DP  RH WIND       PRES   REMARKS
PINE RIDGE     CLEAR     60  54  80 E5        29.92R
CHADRON        CLEAR     66  54  65 NE8       29.92R
ALLIANCE       CLOUDY    71  52  50 NE7       29.93R
SIDNEY           N/A     65  57  75 N6        29.96
WHITECLAY        N/A     59  52  79 CALM        N/A
RUSHVILLE        N/A     63  46  53 E12         N/A
LISCO            N/A     77  54  44 NW6         N/A
BIG SPRINGS      N/A     72  60  64 CALM        N/A
$$

...OBSERVATIONS IN NORTH CENTRAL NEBRASKA...

CITY           SKY/WX    TMP DP  RH WIND       PRES   REMARKS
VALENTINE      PTCLDY    66  56  70 CALM      29.85R
THEDFORD       MOCLDY    72  60  65 CALM      29.87S
AINSWORTH      MOCLDY    68  59  72 CALM      29.85R
O`NEILL        PTCLDY    69  64  83 NW5       29.80S
ORD            CLEAR     74  62  66 W6        29.80R
BROKEN BOW     PTCLDY    80  61  52 W9G17     29.84R
SPRINGVIEW       N/A     69  63  81 CALM        N/A
ROSE             N/A     77  65  67 N3          N/A
NEWPORT          N/A     70  62  75 CALM        N/A
COMSTOCK         N/A     82  66  58 S7          N/A
CHAMBERS         N/A     70  62  76 CALM        N/A
$$

...OBSERVATIONS IN SOUTHWEST NEBRASKA AND FAR NORTHEAST COLORADO...

CITY           SKY/WX    TMP DP  RH WIND       PRES   REMARKS
WRAY           FAIR      75  56  52 CALM      29.91R
HOLYOKE        FAIR      73  55  53 E5        29.91F
IMPERIAL       CLOUDY    77  59  53 S9        29.88R
OGALLALA       CLOUDY    69  59  70 NE6       29.87S
NORTH PLATTE   MOCLDY    76  59  55 VRB6      29.85R
MCCOOK         PTCLDY    78  59  51 S12       29.86R
LEXINGTON      CLEAR     75  61  60 S12       29.84S
PAXTON           N/A     71  58  64 CALM        N/A
SUTHERLAND       N/A     81  55  40 W5          N/A
BRADY            N/A     79  62  55 CALM        N/A
GOTHENBURG       N/A     81  57  43 S8          N/A
CALLAWAY         N/A     70  63  78 S9          N/A
$$

...SOME WEATHER OBSERVATIONS FROM AROUND THE REGION...

CITY           SKY/WX    TMP DP  RH WIND       PRES   REMARKS
DENVER         CLOUDY    70  49  47 NE14      30.04R
LARAMIE        CLEAR     57  39  51 SW7       30.18R
CHEYENNE       PTCLDY    68  40  35 NW5       30.10R
SCOTTSBLUFF    PTCLDY    68  51  54 NE10      29.94R
RAPID CITY     PTCLDY    66  48  52 N9        29.93R
PIERRE         MOCLDY    69  53  56 NW8       29.79R
WINNER         FAIR      70  56  61 CALM      29.81R
SIOUX FALLS    CLOUDY    75  64  68 NW5       29.72F
OMAHA          PTCLDY    75  68  78 S16       29.81S
GRAND ISLAND   CLEAR     78  62  57 S15       29.83R
KANSAS CITY    PTCLDY    71  67  87 S12       29.95R
WICHITA        CLEAR     75  66  73 SE10      29.95R
HAYS           PTCLDY    75  59  57 S12       29.92R
LIBERAL        CLEAR     73  57  56 S9        29.98R
GOODLAND       CLEAR     71  59  65 S12       29.94R
$$



USA.gov is the U.S. government's official web portal to all federal, state and local government web resources and services.